Content
SEND FEEDBACK

Daily
Averages
Monthly
Summary
United States of America

CARLE PLACE, NEW YORK


Home > North America > United States > New York
Elevation: 125 feet     Latitude: 40 43N     Longitude: 073 36W

WEATHER
 
SELECT A DAY
Number of Records: 196,269;   Date Range: 1/1/95 - 10/21/14
 
SHARE

PRINT THIS DATA

[ ← Previous Day ]
WEATHER ALMANAC - JANUARY 23, 2013
[ Next Day → ]
[ °C ]   °F
Weather ElementAverageHighLow
Temperature15.2 °F19 °F (12:53 pm)10.9 °F (4:53 am)
Dewpoint-4.8 °F-2 °F (9:53 pm)-7.1 °F (3:53 pm)
Humidity41.5 %49 % (7:53 am)31 % (3:53 pm)
Barometer30.20 in30.25 in (9:53 am)30.17 in (1:53 pm)
Wind Speed8.5 mph13.8 mph (11:53 am)
Wind Gust23 mph (11:53 am)
Weather ElementAverage
Visibility10 mi
Wind DirectionWNW (290 °)

Weather ElementTotal
Precipitation---
Heating Degree Days50.1 (Base 65)
Averaged from 21 records on January 23, 2013
WEATHER CONDITIONS BREAKOUT
WIND DIRECTION BREAKOUT
WEATHER BY HOUR - JANUARY 23, 2013
[ °C ]   °F
Local TimeTemperatureDewpointHumidityBarometerVisibilityWind DirectionWind SpeedGust SpeedPrecipitationEventsConditions
2:53 AM12.0 °F-6.0 °F44 %30.22 in10.0 miWNW (290°)10.4 mph18.4 mphClear
3:53 AM12.0 °F-6.0 °F44 %30.21 in10.0 miWNW (300°)8.1 mphClear
4:53 AM10.9 °F-6.0 °F47 %30.21 in10.0 miWNW (300°)9.2 mphClear
5:53 AM10.9 °F-6.0 °F47 %30.21 in10.0 miWNW (300°)8.1 mphClear
7:53 AM12.0 °F-4.0 °F49 %30.23 in10.0 miWNW (300°)5.8 mphClear
8:53 AM12.9 °F-2.9 °F49 %30.24 in10.0 miNW (310°)11.5 mph19.6 mphClear
9:53 AM15.1 °F-5.1 °F41 %30.25 in10.0 miNNW (330°)12.7 mph20.7 mphPartly Cloudy
10:53 AM16.0 °F-5.1 °F39 %30.25 in10.0 miWNW (300°)9.2 mph20.7 mphPartly Cloudy
11:53 AM17.1 °F-5.1 °F37 %30.21 in10.0 miNW (310°)13.8 mph23.0 mphClear
12:53 PM19.0 °F-6.0 °F33 %30.18 in10.0 miNW (310°)12.7 mph21.9 mphPartly Cloudy
1:53 PM19.0 °F-6.0 °F33 %30.17 in10.0 miNW (310°)10.4 mph18.4 mphMostly Cloudy
2:53 PM19.0 °F-5.1 °F34 %30.17 in10.0 miNW (310°)10.4 mphScattered Clouds
3:53 PM19.0 °F-7.1 °F31 %30.17 in10.0 miNW (310°)12.7 mph19.6 mphScattered Clouds
4:53 PM18.0 °F-6.0 °F35 %30.17 in10.0 miNW (310°)12.7 mph19.6 mphPartly Cloudy
5:53 PM17.1 °F-5.1 °F37 %30.19 in10.0 miWNW (290°)5.8 mphScattered Clouds
6:53 PM16.0 °F-6.0 °F38 %30.20 in10.0 miNW (310°)6.9 mphClear
7:53 PM16.0 °F-4.0 °F41 %30.20 in10.0 miNW (310°)5.8 mphClear
8:53 PM15.1 °F-2.9 °F45 %30.20 in10.0 miNW (310°)5.8 mphClear
9:53 PM14.0 °F-2.0 °F49 %30.20 in10.0 miWNW (300°)3.5 mphClear
10:53 PM14.0 °F-2.0 °F49 %30.20 in10.0 miWest (280°)3.5 mphClear
11:53 PM14.0 °F-2.0 °F49 %30.19 in10.0 miCalmClear
Hourly data recorded from KFRG, located miles away from Carle Place, New York







STORIES FROM OUR PARTNERS